| time (UTC) | temp F | wind direction | speed knots | gust knots | rain 1hr in | rain 24hr in | rain mn in | humidity % | barometer mb |
| 20260506143122 | 64 | 184 | 2.6 | 4.3 | 0.00 | 0.00 | 0.00 | 89 | 1007.9 |
| 20260506142122 | 63 | 269 | 3.5 | 5.2 | 0.00 | 0.00 | 0.00 | 88 | 1008.1 |
| 20260506141123 | 64 | 227 | 3.5 | 7.0 | 0.00 | 0.00 | 0.00 | 88 | 1008.2 |
| 20260506140122 | 64 | 222 | 3.5 | 5.2 | 0.00 | 0.00 | 0.00 | 87 | 1008.2 |
| 20260506135123 | 65 | 231 | 2.6 | 5.2 | 0.00 | 0.00 | 0.00 | 86 | 1008.2 |
| 20260506134144 | 65 | 235 | 4.3 | 6.1 | 0.00 | 0.00 | 0.00 | 86 | 1008.4 |
| 20260506133143 | 65 | 215 | 4.3 | 7.0 | 0.00 | 0.00 | 0.00 | 86 | 1008.4 |
| 20260506132122 | 65 | 210 | 3.5 | 7.0 | 0.00 | 0.00 | 0.00 | 86 | 1008.2 |
| 20260506131121 | 65 | 241 | 2.6 | 5.2 | 0.00 | 0.00 | 0.00 | 86 | 1008.2 |
| 20260506130121 | 64 | 225 | 2.6 | 5.2 | 0.00 | 0.00 | 0.00 | 87 | 1008.2 |
| 20260506125121 | 63 | 239 | 2.6 | 5.2 | 0.00 | 0.00 | 0.00 | 89 | 1008.2 |
| 20260506124145 | 62 | 232 | 3.5 | 7.0 | 0.00 | 0.00 | 0.00 | 91 | 1008.2 |
| 20260506123123 | 62 | 236 | 2.6 | 5.2 | 0.00 | 0.00 | 0.00 | 91 | 1008.2 |
| 20260506122122 | 62 | 221 | 3.5 | 7.0 | 0.00 | 0.00 | 0.00 | 90 | 1008.6 |
| 20260506121121 | 63 | 259 | 3.5 | 6.1 | 0.00 | 0.00 | 0.00 | 90 | 1008.6 |
| 20260506120121 | 61 | 241 | 3.5 | 5.2 | 0.00 | 0.00 | 0.00 | 93 | 1008.7 |
| 20260506115121 | 61 | 230 | 2.6 | 4.3 | 0.00 | 0.00 | 0.00 | 95 | 1008.7 |
| 20260506114121 | 61 | 259 | 2.6 | 4.3 | 0.00 | 0.00 | 0.00 | 95 | 1008.7 |
| 20260506113122 | 60 | 274 | 3.5 | 5.2 | 0.00 | 0.00 | 0.00 | 95 | 1008.6 |
| 20260506112123 | 60 | 261 | 2.6 | 4.3 | 0.00 | 0.00 | 0.00 | 96 | 1008.5 |
| 20260506111123 | 59 | 210 | 2.6 | 8.7 | 0.00 | 0.00 | 0.00 | 98 | 1008.6 |
| 20260506110122 | 58 | 206 | 2.6 | 6.1 | 0.00 | 0.00 | 0.00 | 99 | 1008.6 |
| 20260506105123 | 58 | 209 | 2.6 | 6.1 | 0.00 | 0.00 | 0.00 | 99 | 1008.6 |
| 20260506104122 | 56 | 229 | 2.6 | 5.2 | 0.00 | 0.00 | 0.00 | 99 | 1008.5 |
| 20260506103122 | 56 | 227 | 2.6 | 4.3 | 0.00 | 0.00 | 0.00 | 99 | 1008.5 |
| 20260506102122 | 55 | 207 | 2.6 | 3.5 | 0.00 | 0.00 | 0.00 | 99 | 1008.5 |
| 20260506101122 | 55 | 276 | 1.7 | 4.3 | 0.00 | 0.00 | 0.00 | 99 | 1008.4 |
| 20260506100124 | 55 | 239 | 2.6 | 5.2 | 0.00 | 0.00 | 0.00 | 99 | 1008.4 |
| 20260506095123 | 55 | 217 | 2.6 | 4.3 | 0.00 | 0.00 | 0.00 | 99 | 1008.4 |
| 20260506094123 | 55 | 219 | 1.7 | 4.3 | 0.00 | 0.00 | 0.00 | 99 | 1008.4 |
| 20260506093122 | 55 | 226 | 2.6 | 5.2 | 0.00 | 0.00 | 0.00 | 99 | 1008.4 |
| 20260506092121 | 55 | 198 | 1.7 | 3.5 | 0.00 | 0.00 | 0.00 | 99 | 1008.4 |
| 20260506091121 | 55 | 244 | 1.7 | 3.5 | 0.00 | 0.00 | 0.00 | 99 | 1008.6 |
| 20260506090121 | 55 | 216 | 1.7 | 3.5 | 0.00 | 0.00 | 0.00 | 99 | 1008.6 |
| 20260506085122 | 55 | 166 | 1.7 | 4.3 | 0.00 | 0.00 | 0.00 | 99 | 1008.7 |
| 20260506084121 | 55 | 177 | 1.7 | 4.3 | 0.00 | 0.00 | 0.00 | 99 | 1008.7 |
| 20260506083122 | 55 | 210 | 1.7 | 3.5 | 0.00 | 0.00 | 0.00 | 99 | 1008.7 |
| 20260506082121 | 55 | 195 | 1.7 | 3.5 | 0.00 | 0.00 | 0.00 | 99 | 1008.7 |
| 20260506081121 | 55 | 161 | 1.7 | 3.5 | 0.00 | 0.00 | 0.00 | 99 | 1008.8 |
| 20260506080152 | 55 | 191 | 1.7 | 3.5 | 0.00 | 0.00 | 0.00 | 99 | 1008.9 |
| 20260506080142 | 55 | 193 | 1.7 | 3.5 | 0.00 | 0.00 | 0.00 | 99 | 1008.9 |
| 20260506073143 | 55 | 210 | 1.7 | 4.3 | 0.00 | 0.00 | 0.00 | 99 | 1008.9 |
| 20260506072142 | 55 | 159 | 0.9 | 2.6 | 0.00 | 0.00 | 0.00 | 99 | 1009.1 |
| 20260506071123 | 56 | 182 | 0.9 | 2.6 | 0.00 | 0.00 | 0.00 | 99 | 1009.1 |
| 20260506070121 | 56 | 181 | 1.7 | 3.5 | 0.00 | 0.00 | 0.00 | 99 | 1009.1 |
| 20260506062144 | 57 | 298 | 2.6 | 4.3 | 0.00 | 0.00 | 0.00 | 99 | 1009.0 |
| 20260506061122 | 57 | 227 | 2.6 | 4.3 | 0.00 | 0.00 | 0.00 | 99 | 1009.0 |
| 20260506060122 | 57 | 213 | 1.7 | 3.5 | 0.00 | 0.00 | 0.00 | 99 | 1009.0 |
| 20260506051121 | 57 | 236 | 2.6 | 5.2 | 0.00 | 0.00 | 0.00 | 98 | 1009.2 |
| 20260506050122 | 58 | 157 | 2.6 | 5.2 | 0.00 | 0.00 | 0.00 | 97 | 1009.2 |
| 20260506045121 | 58 | 227 | 1.7 | 4.3 | 0.00 | 0.00 | 0.00 | 97 | 1009.4 |
| 20260506044121 | 58 | 218 | 2.6 | 4.3 | 0.00 | 0.00 | 0.00 | 96 | 1009.4 |
| 20260506043122 | 58 | 227 | 3.5 | 7.8 | 0.00 | 0.00 | 0.00 | 96 | 1009.5 |
| 20260506042122 | 58 | 245 | 4.3 | 8.7 | 0.00 | 0.00 | 0.00 | 95 | 1009.2 |
| 20260506041121 | 59 | 226 | 3.5 | 7.8 | 0.00 | 0.00 | 0.00 | 95 | 1009.2 |
| 20260506040122 | 59 | 252 | 3.5 | 5.2 | 0.00 | 0.00 | 0.00 | 94 | 1009.2 |
| 20260506035121 | 59 | 220 | 3.5 | 6.1 | 0.00 | 0.00 | 0.00 | 94 | 1009.2 |
| 20260506034121 | 59 | 230 | 3.5 | 7.0 | 0.00 | 0.00 | 0.00 | 93 | 1009.2 |
| 20260506033121 | 60 | 260 | 3.5 | 7.0 | 0.00 | 0.00 | 0.00 | 93 | 1009.1 |
| 20260506032124 | 60 | 278 | 3.5 | 6.1 | 0.00 | 0.00 | 0.00 | 92 | 1009.1 |
| 20260506031143 | 60 | 206 | 3.5 | 7.0 | 0.00 | 0.00 | 0.00 | 91 | 1009.2 |
| 20260506030121 | 61 | 268 | 3.5 | 7.0 | 0.00 | 0.00 | 0.00 | 90 | 1009.2 |
| 20260506025121 | 61 | 196 | 3.5 | 7.8 | 0.00 | 0.00 | 0.00 | 89 | 1009.2 |
| 20260506024122 | 61 | 226 | 3.5 | 7.0 | 0.00 | 0.00 | 0.00 | 88 | 1009.2 |
| 20260506023143 | 61 | 233 | 3.5 | 6.1 | 0.00 | 0.00 | 0.00 | 87 | 1009.2 |
| 20260506022122 | 61 | 239 | 2.6 | 6.1 | 0.00 | 0.00 | 0.00 | 86 | 1009.1 |
| 20260506021143 | 62 | 215 | 3.5 | 5.2 | 0.00 | 0.00 | 0.00 | 85 | 1009.2 |
| 20260506020123 | 62 | 216 | 3.5 | 6.1 | 0.00 | 0.00 | 0.00 | 84 | 1009.2 |
| 20260506015123 | 63 | 220 | 4.3 | 9.6 | 0.00 | 0.00 | 0.00 | 83 | 1009.1 |
| 20260506014123 | 63 | 251 | 3.5 | 7.8 | 0.00 | 0.00 | 0.00 | 81 | 1008.9 |
| 20260506013123 | 64 | 214 | 3.5 | 8.7 | 0.00 | 0.00 | 0.00 | 80 | 1008.9 |
| 20260506012122 | 64 | 222 | 3.5 | 5.2 | 0.00 | 0.00 | 0.00 | 80 | 1008.7 |
| 20260506011122 | 64 | 207 | 3.5 | 6.1 | 0.00 | 0.00 | 0.00 | 80 | 1008.6 |
| 20260506010121 | 64 | 271 | 3.5 | 7.0 | 0.00 | 0.00 | 0.00 | 80 | 1008.6 |
| 20260506005122 | 64 | 224 | 4.3 | 7.8 | 0.00 | 0.00 | 0.00 | 79 | 1008.5 |
| 20260506004124 | 65 | 236 | 4.3 | 7.8 | 0.00 | 0.00 | 0.00 | 78 | 1008.2 |
| 20260506003124 | 65 | 236 | 3.5 | 6.1 | 0.00 | 0.00 | 0.00 | 77 | 1008.2 |
| 20260506002121 | 66 | 213 | 3.5 | 8.7 | 0.00 | 0.00 | 0.00 | 77 | 1008.1 |
| 20260506001121 | 66 | 231 | 5.2 | 7.8 | 0.00 | 0.00 | 0.00 | 77 | 1007.9 |
| 20260506000122 | 66 | 297 | 4.3 | 10.4 | 0.00 | 0.00 | 0.00 | 77 | 1007.9 |
| 20260505235143 | 66 | 268 | 5.2 | 9.6 | 0.00 | 0.00 | 0.00 | 77 | 1007.7 |
| 20260505234209 | 66 | 238 | 5.2 | 13.0 | 0.00 | 0.00 | 0.00 | 76 | 1007.5 |
| 20260505234142 | 66 | 236 | 5.2 | 13.0 | 0.00 | 0.00 | 0.00 | 76 | 1007.5 |
| 20260505233125 | 66 | 250 | 4.3 | 7.0 | 0.00 | 0.00 | 0.00 | 76 | 1007.2 |
| 20260505232125 | 66 | 244 | 4.3 | 8.7 | 0.00 | 0.00 | 0.00 | 76 | 1007.2 |
| 20260505231125 | 66 | 240 | 4.3 | 8.7 | 0.00 | 0.00 | 0.00 | 76 | 1007.2 |
| 20260505230121 | 66 | 225 | 5.2 | 14.8 | 0.00 | 0.00 | 0.00 | 76 | 1007.0 |
| 20260505225142 | 66 | 256 | 4.3 | 8.7 | 0.00 | 0.00 | 0.00 | 75 | 1007.0 |
| 20260505224124 | 67 | 264 | 4.3 | 8.7 | 0.00 | 0.00 | 0.00 | 74 | 1007.1 |
| 20260505223143 | 67 | 230 | 5.2 | 9.6 | 0.00 | 0.00 | 0.00 | 74 | 1007.0 |
| 20260505222144 | 68 | 233 | 5.2 | 7.0 | 0.00 | 0.00 | 0.00 | 73 | 1006.8 |
| 20260505221125 | 68 | 252 | 6.1 | 9.6 | 0.00 | 0.00 | 0.00 | 73 | 1006.9 |
| 20260505220126 | 69 | 237 | 6.1 | 9.6 | 0.00 | 0.00 | 0.00 | 71 | 1006.8 |
| 20260505215122 | 69 | 241 | 4.3 | 7.8 | 0.00 | 0.00 | 0.00 | 70 | 1006.8 |
| 20260505214122 | 70 | 267 | 5.2 | 9.6 | 0.00 | 0.00 | 0.00 | 71 | 1006.8 |
| 20260505213123 | 70 | 233 | 6.1 | 10.4 | 0.00 | 0.00 | 0.00 | 70 | 1006.8 |
| 20260505212121 | 72 | 263 | 7.0 | 13.0 | 0.00 | 0.00 | 0.00 | 65 | 1006.6 |
| 20260505211142 | 73 | 234 | 4.3 | 7.8 | 0.00 | 0.00 | 0.00 | 64 | 1006.5 |
| 20260505210122 | 73 | 249 | 6.1 | 8.7 | 0.00 | 0.00 | 0.00 | 65 | 1006.5 |
| 20260505205121 | 74 | 245 | 4.3 | 8.7 | 0.00 | 0.00 | 0.00 | 63 | 1006.6 |
| 20260505204121 | 73 | 253 | 6.1 | 11.3 | 0.00 | 0.00 | 0.00 | 64 | 1006.7 |
| 20260505203121 | 75 | 247 | 4.3 | 7.8 | 0.00 | 0.00 | 0.00 | 62 | 1006.6 |
| 20260505202142 | 75 | 240 | 4.3 | 7.8 | 0.00 | 0.00 | 0.00 | 63 | 1006.8 |
| 20260505201121 | 73 | 251 | 5.2 | 9.6 | 0.00 | 0.00 | 0.00 | 64 | 1006.8 |
| 20260505200122 | 74 | 258 | 6.1 | 9.6 | 0.00 | 0.00 | 0.00 | 63 | 1006.8 |
| 20260505195143 | 76 | 257 | 4.3 | 7.8 | 0.00 | 0.00 | 0.00 | 61 | 1007.0 |
| 20260505194121 | 76 | 264 | 5.2 | 10.4 | 0.00 | 0.00 | 0.00 | 61 | 1007.2 |
| 20260505193121 | 76 | 24 | 5.2 | 10.4 | 0.00 | 0.00 | 0.00 | 61 | 1007.2 |
| 20260505192123 | 76 | 245 | 6.1 | 10.4 | 0.00 | 0.00 | 0.00 | 61 | 1007.6 |
| 20260505191142 | 76 | 267 | 4.3 | 8.7 | 0.00 | 0.00 | 0.00 | 61 | 1008.0 |
| 20260505190143 | 76 | 261 | 5.2 | 7.8 | 0.00 | 0.00 | 0.00 | 61 | 1008.0 |
| 20260505185123 | 76 | 205 | 5.2 | 9.6 | 0.00 | 0.00 | 0.00 | 62 | 1008.0 |
| 20260505184143 | 77 | 196 | 2.6 | 5.2 | 0.00 | 0.00 | 0.00 | 60 | 1008.2 |
| 20260505183121 | 76 | 262 | 3.5 | 6.1 | 0.00 | 0.00 | 0.00 | 62 | 1008.2 |
| 20260505182124 | 75 | 217 | 3.5 | 7.0 | 0.00 | 0.00 | 0.00 | 64 | 1008.4 |
| 20260505181122 | 74 | 183 | 4.3 | 7.8 | 0.00 | 0.00 | 0.00 | 65 | 1008.5 |
| 20260505180143 | 75 | 278 | 4.3 | 9.6 | 0.00 | 0.00 | 0.00 | 63 | 1008.4 |
| 20260505175122 | 75 | 241 | 4.3 | 6.1 | 0.00 | 0.00 | 0.00 | 64 | 1008.4 |
| 20260505174122 | 75 | 262 | 4.3 | 10.4 | 0.00 | 0.00 | 0.00 | 64 | 1008.7 |
| 20260505173123 | 76 | 256 | 3.5 | 7.8 | 0.00 | 0.00 | 0.00 | 63 | 1008.6 |
| 20260505172121 | 76 | 261 | 3.5 | 6.1 | 0.00 | 0.00 | 0.00 | 63 | 1008.6 |
| 20260505171122 | 76 | 227 | 3.5 | 7.0 | 0.00 | 0.00 | 0.00 | 64 | 1008.8 |
| 20260505170144 | 78 | 257 | 4.3 | 7.0 | 0.00 | 0.00 | 0.00 | 60 | 1008.8 |
| 20260505165143 | 78 | 215 | 3.5 | 7.8 | 0.00 | 0.00 | 0.00 | 60 | 1008.7 |
| 20260505164144 | 79 | 211 | 2.6 | 5.2 | 0.00 | 0.00 | 0.00 | 60 | 1008.8 |
| 20260505163125 | 78 | 202 | 2.6 | 5.2 | 0.00 | 0.00 | 0.00 | 60 | 1009.0 |
| 20260505162121 | 77 | 210 | 3.5 | 4.3 | 0.00 | 0.00 | 0.00 | 62 | 1009.1 |
| 20260505161121 | 77 | 147 | 3.5 | 5.2 | 0.00 | 0.00 | 0.00 | 62 | 1009.2 |
| 20260505160143 | 76 | 118 | 2.6 | 4.3 | 0.00 | 0.00 | 0.00 | 64 | 1009.2 |
| 20260505153122 | 74 | 205 | 2.6 | 4.3 | 0.00 | 0.00 | 0.00 | 66 | 1009.6 |
| 20260505152125 | 74 | 105 | 3.5 | 6.1 | 0.00 | 0.00 | 0.00 | 67 | 1009.6 |
| 20260505151121 | 74 | 194 | 2.6 | 5.2 | 0.00 | 0.00 | 0.00 | 66 | 1009.8 |
| 20260505150121 | 74 | 260 | 3.5 | 6.1 | 0.00 | 0.00 | 0.00 | 64 | 1009.8 |